Latest Coastal Weather Observations for Browse Island

IDW60701

Issued at 8:05 pm WST Thursday 30 October 2014 (issued every 10 minutes, with the page automatically refreshed every 10 minutes)

About coastal observations | Map of coastal stations | Coastal observations for WA | Marine services | Other Formats
Station Details ID: 200784 Name: BROWSE ISLAND Lat: -14.11 Lon: 123.55 Height: 3.7 m
Data from the previous 72 hours. | See also: Recent months for locations in Western Australia
Date/Time
WST
Temp

°C
Wind Pressure Rain
since 9am
mm
Weather Cloud Vis
km
Sea
Height
m
Swell
Dir
 
Speed
knots
Gust
knots
hPa Trend Height
m
Period
s
Dir
30/08:00pm 28.8 W 14 15 1009.0 - - - - - - - - -
30/07:30pm 29.0 W 14 - 1008.0 - - - - - - - - -
30/07:00pm 29.1 W 14 - 1008.5 - - - - - - - - -
30/06:30pm 29.0 W 13 - 1008.0 - - - - - - - - -
30/06:00pm 29.0 W 13 - 1008.1 - - - - - - - - -
30/05:30pm 29.0 W 12 - 1008.0 - - - - - - - - -
30/05:00pm 29.0 W 12 - 1007.7 - - - - - - - - -
30/04:30pm 29.0 W 11 - 1007.0 - - - - - - - - -
30/04:00pm 29.2 W 11 - 1007.3 - - - - - - - - -
30/03:30pm 29.0 W 11 - 1007.0 - - - - - - - - -
30/03:00pm 29.1 W 11 - 1007.6 - - - - - - - - -
30/02:30pm 29.0 W 10 - 1008.0 - - - - - - - - -
30/02:00pm 29.2 W 10 - 1008.4 - - - - - - - - -
30/01:30pm 29.0 W 10 - 1008.0 - - - - - - - - -
30/01:00pm 29.3 W 9 - 1008.8 - - - - - - - - -
30/12:30pm 29.0 W 9 - 1009.0 - - - - - - - - -
30/12:00pm 29.1 W 9 - 1009.5 - - - - - - - - -
30/11:30am 29.0 W 9 - 1009.0 - - - - - - - - -
30/11:00am 29.3 W 8 - 1010.1 - - - - - - - - -
30/10:30am 29.0 W 8 - 1010.0 - - - - - - - - -
30/10:00am 29.6 W 7 - 1010.5 - - - - - - - - -
30/09:30am 29.0 W 7 - 1011.0 - - - - - - - - -
30/09:00am 28.8 W 8 - 1011.0 - - - - - - - - -
30/08:30am 29.0 W 7 - 1011.0 - - - - - - - - -
30/08:00am 28.5 W 7 - 1011.0 - - - - - - - - -
30/07:30am 28.0 WSW 7 - 1010.0 - - - - - - - - -
30/07:00am 28.2 W 7 - 1010.5 - - - - - - - - -
30/06:30am 28.0 W 7 - 1010.0 - - - - - - - - -
30/06:00am 27.9 W 8 - 1009.8 - - - - - - - - -
30/05:30am 28.0 W 8 - 1009.0 - - - - - - - - -
30/05:00am 27.8 WSW 7 - 1009.3 - - - - - - - - -
30/04:30am 28.0 WSW 7 - 1009.0 - - - - - - - - -
30/04:00am 27.6 W 6 7 1009.1 - - - - - - - - -
30/03:30am 28.0 W 4 - 1009.0 - - - - - - - - -
30/03:00am 27.5 WSW 4 - 1009.1 - - - - - - - - -
30/02:30am 28.0 W 4 - 1009.0 - - - - - - - - -
30/02:00am 27.6 W 4 - 1009.0 - - - - - - - - -
30/01:30am 28.0 CALM 0 - 1009.0 - - - - - - - - -
30/01:00am 27.5 WNW 3 - 1009.4 - - - - - - - - -
30/12:30am 28.0 W 3 - 1009.0 - - - - - - - - -
30/12:00am 27.7 W 3 3 1010.0 - - - - - - - - -
 
Date/Time
WST
Temp

°C
Wind Pressure Rain
since 9am
mm
Weather Cloud Vis
km
Sea
Height
m
Swell
Dir
 
Speed
knots
Gust
knots
hPa Trend Height
m
Period
s
Dir
29/11:30pm 28.0 SW 7 - 1010.0 - - - - - - - - -
29/11:00pm 27.8 SW 8 - 1010.3 - - - - - - - - -
29/10:30pm 28.0 SW 10 - 1010.0 - - - - - - - - -
29/10:00pm 27.9 SSW 11 - 1010.8 - - - - - - - - -
29/09:30pm 28.0 SW 13 - 1010.0 - - - - - - - - -
29/09:00pm 28.0 SW 12 - 1010.6 - - - - - - - - -
29/08:30pm 28.0 SW 13 - 1010.0 - - - - - - - - -
29/08:00pm 28.1 SW 12 - 1010.5 - - - - - - - - -
29/07:30pm 28.0 SW 14 - 1010.0 - - - - - - - - -
29/07:00pm 28.2 SW 15 - 1010.1 - - - - - - - - -
29/06:30pm 28.0 SW 14 - 1010.0 - - - - - - - - -
29/06:00pm 28.6 SW 14 - 1009.9 - - - - - - - - -
29/05:30pm 29.0 SW 14 - 1009.0 - - - - - - - - -
29/05:00pm 28.8 SW 14 - 1009.4 - - - - - - - - -
29/04:30pm 29.0 SW 13 - 1009.0 - - - - - - - - -
29/04:00pm 28.8 SW 13 - 1009.5 - - - - - - - - -
29/03:30pm 29.0 WSW 12 - 1009.0 - - - - - - - - -
29/03:00pm 29.1 WSW 11 - 1009.8 - - - - - - - - -
29/02:30pm 29.0 SW 11 - 1010.0 - - - - - - - - -
29/02:00pm 29.1 SW 10 - 1010.4 - - - - - - - - -
29/01:30pm 29.0 WSW 8 - 1010.0 - - - - - - - - -
29/01:00pm 29.6 WSW 7 - 1011.0 - - - - - - - - -
29/12:30pm 30.0 W 5 - 1011.0 - - - - - - - - -
29/12:00pm 29.9 WNW 5 - 1012.0 - - - - - - - - -
29/11:30am 30.0 W 4 - 1012.0 - - - - - - - - -
29/11:00am 29.2 W 5 - 1012.8 - - - - - - - - -
29/10:30am 30.0 W 5 - 1013.0 - - - - - - - - -
29/10:00am 29.3 WSW 5 - 1013.2 - - - - - - - - -
29/09:30am 29.0 WSW 5 - 1013.0 - - - - - - - - -
29/09:00am 29.0 WSW 4 - 1013.3 - - - - - - - - -
29/08:30am 28.0 WNW 5 - 1013.0 - - - - - - - - -
29/08:00am 28.1 W 6 - 1013.1 - - - - - - - - -
29/07:30am 28.0 W 5 - 1013.0 - - - - - - - - -
29/07:00am 27.8 W 6 - 1012.6 - - - - - - - - -
29/06:30am 28.0 W 5 - 1012.0 - - - - - - - - -
29/06:00am 27.4 W 7 - 1011.6 - - - - - - - - -
29/05:30am 28.0 SW 7 - 1011.0 - - - - - - - - -
29/05:00am 27.4 SW 7 - 1011.2 - - - - - - - - -
29/04:30am 28.0 SW 8 - 1011.0 - - - - - - - - -
29/04:00am 27.5 SSW 10 - 1010.5 - - - - - - - - -
29/03:30am 28.0 SSW 9 - 1010.0 - - - - - - - - -
29/03:00am 27.6 SW 9 - 1010.1 - - - - - - - - -
29/02:30am 28.0 SW 9 - 1010.0 - - - - - - - - -
29/02:00am 27.8 SW 8 - 1009.8 - - - - - - - - -
29/01:30am 28.0 SW 7 - 1010.0 - - - - - - - - -
29/01:00am 27.8 SW 7 - 1010.4 - - - - - - - - -
29/12:30am 28.0 SW 7 - 1010.0 - - - - - - - - -
29/12:00am 27.7 WSW 7 - 1010.7 - - - - - - - - -
 
Date/Time
WST
Temp

°C
Wind Pressure Rain
since 9am
mm
Weather Cloud Vis
km
Sea
Height
m
Swell
Dir
 
Speed
knots
Gust
knots
hPa Trend Height
m
Period
s
Dir
28/11:30pm 28.0 WSW 6 - 1010.0 - - - - - - - - -
28/11:00pm 27.9 SW 8 - 1010.7 - - - - - - - - -
28/10:30pm 28.0 SW 7 - 1011.0 - - - - - - - - -
28/10:00pm 27.9 SW 8 - 1010.9 - - - - - - - - -
28/09:30pm 28.0 SW 7 - 1011.0 - - - - - - - - -
28/09:00pm 28.1 SW 9 - 1010.9 - - - - - - - - -
28/08:30pm 28.0 SW 9 - 1010.0 - - - - - - - - -
28/08:00pm 28.1 SW 9 - 1010.6 - - - - - - - - -
28/07:30pm 28.0 SW 10 - 1010.0 - - - - - - - - -
28/07:00pm 28.3 SW 11 - 1009.9 - - - - - - - - -
28/06:30pm 28.0 SW 11 - 1009.0 - - - - - - - - -
28/06:00pm 28.3 SW 12 - 1009.3 - - - - - - - - -
28/05:30pm 28.0 SW 11 - 1009.0 - - - - - - - - -
28/05:00pm 28.4 SSW 11 - 1009.0 - - - - - - - - -
28/04:30pm 29.0 SSW 12 - 1008.0 - - - - - - - - -
28/04:00pm 28.6 SSW 12 - 1008.6 - - - - - - - - -
28/03:30pm 29.0 SW 12 - 1008.0 - - - - - - - - -
28/03:00pm 28.6 SW 12 - 1008.9 - - - - - - - - -
28/02:30pm 29.0 SW 10 - 1009.0 - - - - - - - - -
28/02:00pm 29.2 SW 9 - 1009.3 - - - - - - - - -
28/01:30pm 29.0 SW 8 - 1009.0 - - - - - - - - -
28/01:00pm 29.0 WSW 8 - 1010.1 - - - - - - - - -
28/12:30pm 30.0 W 4 - 1010.0 - - - - - - - - -
28/12:00pm 30.1 NNW 5 - 1011.2 - - - - - - - - -
28/11:30am 31.0 NNW 5 - 1011.0 - - - - - - - - -
28/11:00am 30.0 NE 5 - 1012.2 - - - - - - - - -
28/10:30am 30.0 NE 6 - 1012.0 - - - - - - - - -
28/10:00am 30.0 NE 5 - 1012.5 - - - - - - - - -
28/09:30am 30.0 ENE 5 - 1013.0 - - - - - - - - -
28/09:00am 29.4 ENE 5 - 1013.1 - - - - - - - - -
28/08:30am 29.0 NE 5 - 1013.0 - - - - - - - - -
28/08:00am 29.7 NE 4 - 1013.1 - - - - - - - - -
28/07:30am 29.0 ENE 5 - 1013.0 - - - - - - - - -
28/07:00am 28.8 ENE 4 - 1012.5 - - - - - - - - -
28/06:30am 28.0 NNE 2 - 1012.0 - - - - - - - - -
28/06:00am 27.8 NW 4 - 1011.4 - - - - - - - - -
28/05:30am 28.0 WNW 5 - 1011.0 - - - - - - - - -
28/05:00am 27.8 NW 5 - 1010.5 - - - - - - - - -
28/04:30am 28.0 W 5 - 1010.0 - - - - - - - - -
28/04:00am 27.8 W 5 - 1009.8 - - - - - - - - -
28/03:30am 28.0 W 5 - 1009.0 - - - - - - - - -
28/03:00am 27.9 W 5 - 1009.8 - - - - - - - - -
28/02:30am 28.0 NW 6 - 1009.0 - - - - - - - - -
28/02:00am 28.0 NW 7 - 1009.6 - - - - - - - - -
28/01:30am 28.0 WNW 7 - 1009.0 - - - - - - - - -
28/01:00am 28.0 WNW 7 - 1009.7 - - - - - - - - -
28/12:30am 28.0 NW 7 - 1010.0 - - - - - - - - -
28/12:00am 28.1 NW 8 - 1010.4 - - - - - - - - -
 
Date/Time
WST
Temp

°C
Wind Pressure Rain
since 9am
mm
Weather Cloud Vis
km
Sea
Height
m
Swell
Dir
 
Speed
knots
Gust
knots
hPa Trend Height
m
Period
s
Dir
27/11:30pm 28.0 WNW 8 - 1010.0 - - - - - - - - -
27/11:00pm 28.2 WNW 8 - 1011.0 - - - - - - - - -
27/10:30pm 28.0 WNW 9 - 1011.0 - - - - - - - - -
27/10:00pm 28.3 WNW 10 - 1011.3 - - - - - - - - -
27/09:30pm 28.0 WNW 10 - 1011.0 - - - - - - - - -
27/09:00pm 28.3 WNW 10 - 1011.0 - - - - - - - - -
27/08:30pm 28.0 WNW 10 - 1011.0 - - - - - - - - -

Other Formats:

Comma delimited format used in spreadsheet applications
http://www.bom.gov.au/fwo/IDW60701/IDW60701.94103.axf

JavaScript Object Notation format (JSON) in row-major order
http://www.bom.gov.au/fwo/IDW60701/IDW60701.94103.json